,,PA_Meas_PMT16A,,PR_Meas_QMR101_102,,RH_Meas_QMH101,,SR_Meas_QMS101,,TA_Meas_QMH101,,GenWind,,GenWind,
time,status,PA,status,PR,status,RH,status,SR,status,TA,status,DirAvg,status,SpdAvg,
2016-06-27, 07:26:04,VALID,917.329,VALID,0,VALID,104,VALID,81.2255,VALID,20.1529,VALID,22,VALID,0,
2016-06-27, 07:27:04,VALID,917.33,VALID,0,VALID,104,VALID,82.9446,VALID,20.2309,VALID,22,VALID,0,
2016-06-27, 07:28:04,VALID,917.328,VALID,0,VALID,104,VALID,84.4487,VALID,20.2894,VALID,22,VALID,0,
2016-06-27, 07:31:04,VALID,917.364,VALID,0,VALID,104,VALID,88.2092,VALID,20.4064,VALID,22,VALID,0,
2016-06-27, 08:22:04,VALID,917.618,VALID,0,VALID,81.7916,VALID,126.995,VALID,21.8681,VALID,351,VALID,0,
2016-06-27, 08:23:04,VALID,917.592,VALID,0,VALID,80.3965,VALID,129.359,VALID,21.8485,VALID,351,VALID,0,
2016-06-27, 08:24:04,VALID,917.599,VALID,0,VALID,79.436,VALID,131.186,VALID,21.8079,INVALID,360,VALID,0,
2016-06-27, 08:25:04,VALID,917.578,VALID,0,VALID,81.5782,VALID,132.367,VALID,21.7688,VALID,351,VALID,0,
2016-06-27, 08:26:04,VALID,917.611,VALID,0,VALID,83.2706,VALID,132.797,VALID,21.751,INVALID,360,VALID,0,
2016-06-27, 08:27:04,VALID,917.607,VALID,0,VALID,83.6441,VALID,132.797,VALID,21.751,VALID,16,VALID,0,
2016-06-27, 08:28:04,VALID,917.614,VALID,0,VALID,83.0724,VALID,132.367,VALID,21.7705,VALID,26,VALID,0,
2016-06-27, 08:29:04,VALID,917.607,VALID,0,VALID,82.9885,VALID,132.475,VALID,21.79,VALID,24,VALID,0,
2016-06-27, 08:30:04,VALID,917.588,VALID,0,VALID,82.7369,VALID,132.69,VALID,21.79,VALID,27,VALID,0,
2016-06-27, 08:31:04,VALID,917.569,VALID,0,VALID,82.0661,VALID,133.442,VALID,21.8079,VALID,27,VALID,0,
2016-06-27, 08:32:04,VALID,917.616,VALID,0,VALID,80.9531,VALID,134.516,VALID,21.829,VALID,27,VALID,0,
2016-06-27, 08:33:04,VALID,917.586,VALID,0,VALID,79.6876,VALID,135.483,VALID,21.8095,VALID,14,VALID,0,
2016-06-27, 08:34:04,VALID,917.589,VALID,0,VALID,80.6634,VALID,134.301,VALID,21.7705,VALID,11,VALID,0,
2016-06-27, 08:35:04,VALID,917.609,VALID,0,VALID,80.6481,VALID,135.913,VALID,21.7688,VALID,11,VALID,0,
2016-06-27, 08:36:04,VALID,917.59,VALID,0,VALID,80.7167,VALID,135.698,VALID,21.8095,VALID,266,VALID,0,
2016-06-27, 08:37:04,VALID,917.627,VALID,0,VALID,80.6024,VALID,135.591,VALID,21.7883,VALID,247,VALID,0,
2016-06-27, 08:38:04,VALID,917.652,VALID,0,VALID,79.2149,VALID,135.376,VALID,21.79,VALID,247,VALID,0,
2016-06-27, 08:39:04,VALID,917.681,VALID,0,VALID,81.662,VALID,135.591,VALID,21.79,VALID,255,VALID,0,
2016-06-27, 08:40:04,VALID,917.696,VALID,0,VALID,80.7396,VALID,136.128,VALID,21.6908,VALID,257,VALID,0,
2016-06-27, 08:41:04,VALID,917.67,VALID,0,VALID,81.5248,VALID,137.417,VALID,21.7103,VALID,264,VALID,0,
2016-06-27, 08:42:04,VALID,917.678,VALID,0,VALID,79.9849,VALID,139.029,VALID,21.712,VALID,266,VALID,0,
2016-06-27, 08:43:04,VALID,917.696,VALID,0,VALID,78.9633,VALID,141.178,VALID,21.6908,VALID,270,VALID,0,
2016-06-27, 08:44:04,VALID,917.753,VALID,0,VALID,81.136,VALID,143.434,VALID,21.6908,VALID,342,VALID,0,
2016-06-27, 08:45:04,VALID,917.742,VALID,0,VALID,82.9123,VALID,146.013,VALID,21.6908,VALID,302,VALID,0,
2016-06-27, 08:46:04,VALID,917.752,VALID,0,VALID,84.193,VALID,148.591,VALID,21.6713,VALID,356,VALID,0,
2016-06-27, 08:47:04,VALID,917.723,VALID,0,VALID,84.8791,VALID,151.17,VALID,21.712,VALID,31,VALID,0,
2016-06-27, 08:48:04,VALID,917.699,VALID,0,VALID,84.8486,VALID,153.963,VALID,21.7298,VALID,34,VALID,0,
2016-06-27, 08:49:04,VALID,917.715,VALID,0,VALID,86.2361,VALID,156.542,VALID,21.7688,VALID,38,VALID,0,
2016-06-27, 08:50:04,VALID,917.686,VALID,0,VALID,93.1353,VALID,159.12,VALID,21.8274,VALID,35,VALID,0,
2016-06-27, 08:51:04,VALID,917.686,VALID,0,VALID,89.1177,VALID,162.129,VALID,21.8469,VALID,35,VALID,0,
2016-06-27, 08:52:04,VALID,917.694,VALID,0,VALID,87.5397,VALID,166.211,VALID,21.9054,VALID,35,VALID,0,
2016-06-27, 08:53:04,VALID,917.731,VALID,0,VALID,82.1576,VALID,171.369,VALID,21.9461,VALID,23,VALID,0,
2016-06-27, 08:54:04,VALID,917.733,VALID,0,VALID,82.8055,VALID,176.741,VALID,21.9835,VALID,23,VALID,0,
2016-06-27, 08:55:04,VALID,917.732,VALID,0,VALID,81.3037,VALID,182.005,VALID,22.0403,VALID,23,VALID,0,
2016-06-27, 08:56:04,VALID,917.756,VALID,0,VALID,80.4804,VALID,186.41,VALID,22.0989,VALID,23,VALID,0,
2016-06-27, 08:57:04,VALID,917.781,VALID,0,VALID,79.1768,VALID,190.063,VALID,22.1591,VALID,23,VALID,0,
2016-06-27, 08:58:04,VALID,917.789,VALID,0,VALID,80.2288,VALID,193.072,VALID,22.1981,VALID,23,VALID,0,
2016-06-27, 08:59:04,VALID,917.838,VALID,0,VALID,80.0306,VALID,195.328,VALID,22.2159,VALID,23,VALID,0,
2016-06-27, 09:00:04,VALID,917.889,VALID,0,VALID,79.1463,VALID,197.047,VALID,22.2567,VALID,325,VALID,0,
2016-06-27, 09:01:04,VALID,917.876,VALID,0,VALID,81.2885,VALID,198.766,VALID,22.2762,VALID,326,VALID,0,
2016-06-27, 09:02:04,VALID,917.928,VALID,0,VALID,81.3342,VALID,200.915,VALID,22.294,VALID,359,VALID,0,
2016-06-27, 09:03:04,VALID,917.952,VALID,0,VALID,80.9836,VALID,203.923,VALID,22.3737,VALID,22,VALID,0,
2016-06-27, 09:04:04,VALID,917.937,VALID,0,VALID,80.793,VALID,208.328,VALID,22.372,VALID,23,VALID,0,
2016-06-27, 09:05:04,VALID,917.934,VALID,0,VALID,80.8387,VALID,213.486,VALID,22.4323,VALID,20,VALID,0,
2016-06-27, 09:06:04,VALID,917.95,VALID,0,VALID,80.9378,VALID,218.535,VALID,22.5103,VALID,20,VALID,0,
2016-06-27, 09:07:04,VALID,917.953,VALID,0,VALID,78.9557,VALID,223.585,VALID,22.6079,VALID,20,VALID,0,
2016-06-27, 09:08:04,VALID,917.946,VALID,0,VALID,78.5517,VALID,227.883,VALID,22.647,VALID,22,VALID,0,
2016-06-27, 09:09:04,VALID,917.956,VALID,0,VALID,79.3064,VALID,231.106,VALID,22.6647,VALID,22,VALID,0,
2016-06-27, 09:10:04,VALID,917.952,VALID,0,VALID,78.7423,VALID,233.362,VALID,22.8031,VALID,22,VALID,0,
2016-06-27, 09:11:04,VALID,917.94,VALID,0,VALID,78.2162,VALID,234.759,VALID,22.8812,VALID,22,VALID,0,
2016-06-27, 09:12:04,VALID,917.932,VALID,0,VALID,77.8275,VALID,234.759,VALID,22.9185,VALID,22,VALID,0,
2016-06-27, 09:13:04,VALID,917.945,VALID,0,VALID,77.1032,VALID,234.007,VALID,22.977,VALID,7,VALID,0,
2016-06-27, 09:14:04,VALID,917.934,VALID,0,VALID,76.6077,VALID,232.932,VALID,22.9965,VALID,18,VALID,0,
2016-06-27, 09:15:04,VALID,917.914,VALID,0,VALID,78.384,VALID,232.073,VALID,23.0373,VALID,24,VALID,0,
2016-06-27, 09:16:04,VALID,917.933,VALID,0,VALID,78.3382,VALID,231.428,VALID,23.0763,VALID,34,VALID,0,
2016-06-27, 09:17:04,VALID,917.95,VALID,0,VALID,78.6127,VALID,232.18,VALID,23.0763,VALID,27,VALID,0,
2016-06-27, 09:18:04,VALID,917.934,VALID,0,VALID,77.5911,VALID,233.685,VALID,23.0746,VALID,43,VALID,0,
2016-06-27, 09:19:04,VALID,917.965,VALID,0,VALID,76.9355,VALID,234.974,VALID,23.0941,VALID,44,VALID,0,
2016-06-27, 09:20:04,VALID,917.977,VALID,0,VALID,76.5772,VALID,235.618,VALID,23.1527,VALID,44,VALID,0,
2016-06-27, 09:21:04,VALID,917.982,VALID,0,VALID,76.2494,VALID,236.371,VALID,23.2112,VALID,44,VALID,0,
2016-06-27, 09:22:04,VALID,917.986,VALID,0,VALID,75.731,VALID,237.982,VALID,23.2893,VALID,44,VALID,0,
2016-06-27, 09:23:04,VALID,917.996,VALID,0,VALID,75.5633,VALID,240.131,VALID,23.3478,VALID,44,VALID,0,
2016-06-27, 09:24:04,VALID,918.001,VALID,0,VALID,75.6548,VALID,242.71,VALID,23.3851,VALID,44,VALID,0,
2016-06-27, 09:25:04,VALID,918.012,VALID,0,VALID,73.5278,VALID,246.04,VALID,23.3869,VALID,104,VALID,0,
2016-06-27, 09:26:04,VALID,918.03,VALID,0,VALID,74.8238,VALID,249.801,VALID,23.4259,VALID,123,VALID,0,
2016-06-27, 09:27:04,VALID,918.036,VALID,0,VALID,74.8924,VALID,253.776,VALID,23.4827,VALID,107,VALID,0,
2016-06-27, 09:28:04,VALID,918.032,VALID,0,VALID,73.3982,VALID,258.181,VALID,23.543,VALID,108,VALID,0,
2016-06-27, 09:29:04,VALID,918.064,VALID,0,VALID,73.848,VALID,263.123,VALID,23.5412,VALID,109,VALID,0,
2016-06-27, 09:30:04,VALID,918.044,VALID,0,VALID,74.7552,VALID,269.033,VALID,23.6602,VALID,116,VALID,0,
2016-06-27, 09:31:04,VALID,918.02,VALID,0,VALID,75.205,VALID,275.801,VALID,23.7596,VALID,116,VALID,0,
2016-06-27, 09:32:04,VALID,918.02,VALID,0,VALID,73.1848,VALID,283.43,VALID,23.7968,VALID,117,VALID,0,
2016-06-27, 09:33:04,VALID,917.975,VALID,0,VALID,73.2382,VALID,290.306,VALID,23.8377,VALID,125,VALID,0,
2016-06-27, 09:34:04,VALID,917.962,VALID,0,VALID,73.3144,VALID,292.455,VALID,23.8358,VALID,125,VALID,0,
2016-06-27, 09:35:04,VALID,917.946,VALID,0,VALID,74.0615,VALID,290.628,VALID,23.8749,VALID,27,VALID,0,
2016-06-27, 09:36:04,VALID,917.945,VALID,0,VALID,72.2852,VALID,287.513,VALID,23.8767,VALID,27,VALID,0,
2016-06-27, 09:37:04,VALID,917.963,VALID,0,VALID,73.8557,VALID,284.504,VALID,23.8749,VALID,27,VALID,0,
2016-06-27, 09:38:04,VALID,917.951,VALID,0,VALID,75.1135,VALID,282.57,VALID,23.8554,VALID,25,VALID,0,
2016-06-27, 09:39:04,VALID,917.908,VALID,0,VALID,73.5888,VALID,282.033,VALID,23.8944,VALID,48,VALID,0,
2016-06-27, 09:40:04,VALID,917.951,VALID,0,VALID,73.1314,VALID,283.967,VALID,23.9139,VALID,43,VALID,0.173047,
2016-06-27, 09:41:04,VALID,917.985,VALID,0,VALID,73.2763,VALID,289.232,VALID,23.8749,VALID,26,VALID,0.00507812,
2016-06-27, 09:42:04,VALID,918.03,VALID,0,VALID,73.8404,VALID,296.215,VALID,23.8358,VALID,357,VALID,0.0890625,
2016-06-27, 09:43:04,VALID,918.029,VALID,0,VALID,74.2292,VALID,298.794,VALID,23.8358,VALID,22,VALID,0,
2016-06-27, 09:44:04,VALID,918.002,VALID,0,VALID,73.6803,VALID,301.158,VALID,23.9335,VALID,36,VALID,0,
2016-06-27, 09:45:04,VALID,917.992,VALID,0,VALID,73.5965,VALID,300.62,VALID,23.9335,VALID,6,VALID,0,
2016-06-27, 09:46:04,VALID,917.945,VALID,0,VALID,73.2763,VALID,299.438,VALID,23.8731,VALID,12,VALID,0,
2016-06-27, 09:47:04,VALID,917.933,VALID,0,VALID,73.4364,VALID,299.761,VALID,23.9121,VALID,18,VALID,0,
2016-06-27, 09:48:04,VALID,917.917,VALID,0,VALID,72.613,VALID,302.984,VALID,23.9902,VALID,20,VALID,0,
2016-06-27, 09:49:04,VALID,917.914,VALID,0,VALID,72.4758,VALID,306.1,VALID,23.992,VALID,16,VALID,0,
2016-06-27, 09:50:04,VALID,917.907,VALID,0,VALID,73.909,VALID,311.364,VALID,23.992,VALID,46,VALID,0,
2016-06-27, 09:51:04,VALID,917.878,VALID,0,VALID,73.6117,VALID,321.679,VALID,24.0292,VALID,10,VALID,0,
2016-06-27, 09:52:04,VALID,917.883,VALID,0,VALID,71.6982,VALID,334.679,VALID,24.0488,VALID,27,VALID,0,
2016-06-27, 09:53:04,VALID,917.917,VALID,0,VALID,72.9561,VALID,350.795,VALID,24.1677,VALID,34,VALID,0,
2016-06-27, 09:54:04,VALID,917.915,VALID,0,VALID,72.087,VALID,367.019,VALID,24.283,VALID,41,VALID,0,
2016-06-27, 09:55:04,VALID,917.868,VALID,0,VALID,72.0565,VALID,398.822,VALID,24.3044,VALID,20,VALID,0,
2016-06-27, 09:56:04,VALID,917.874,VALID,0,VALID,72.3691,VALID,390.549,VALID,24.2635,VALID,2,VALID,0,
2016-06-27, 09:57:04,VALID,917.892,VALID,0,VALID,73.8861,VALID,482.411,VALID,24.2635,VALID,298,VALID,0,
2016-06-27, 09:58:04,VALID,917.879,VALID,0,VALID,71.2866,VALID,514.213,VALID,24.3416,VALID,48,VALID,0,
2016-06-27, 09:59:04,VALID,917.898,VALID,0,VALID,69.091,VALID,471.237,VALID,24.4783,VALID,57,VALID,0,
2016-06-27, 10:00:04,VALID,917.92,VALID,0,VALID,71.2027,VALID,501.428,VALID,24.5935,VALID,303,VALID,0,
2016-06-27, 10:01:04,VALID,917.939,VALID,0,VALID,68.1838,VALID,514.213,VALID,24.7107,VALID,317,VALID,0,
2016-06-27, 10:02:04,VALID,917.951,VALID,0,VALID,69.6628,VALID,524.85,VALID,24.7693,VALID,10,VALID,0,
2016-06-27, 10:03:04,VALID,917.957,VALID,0,VALID,70.5776,VALID,652.168,VALID,24.8688,VALID,354,VALID,0,
2016-06-27, 10:04:04,VALID,917.955,VALID,0,VALID,69.9906,VALID,587.596,VALID,25.064,VALID,359,VALID,0,
2016-06-27, 10:05:04,VALID,917.964,VALID,0,VALID,67.7188,VALID,548.487,VALID,25.2769,VALID,13,VALID,0,
2016-06-27, 10:06:04,VALID,917.973,VALID,0,VALID,64.1053,VALID,431.161,VALID,25.2984,VALID,304,VALID,0,
2016-06-27, 10:07:04,VALID,917.967,VALID,0,VALID,68.7175,VALID,404.194,VALID,25.0426,VALID,33,VALID,0,
2016-06-27, 10:08:04,VALID,917.943,VALID,0,VALID,68.3897,VALID,408.276,VALID,24.9878,VALID,25,VALID,0.155859,
2016-06-27, 10:09:04,VALID,917.93,VALID,0,VALID,67.4062,VALID,395.276,VALID,24.9664,VALID,27,VALID,0,
2016-06-27, 10:10:04,VALID,917.956,VALID,0,VALID,68.565,VALID,411.285,VALID,24.8297,VALID,22,VALID,0.885547,
2016-06-27, 10:11:04,VALID,917.954,VALID,0,VALID,69.9372,VALID,440.616,VALID,24.7693,VALID,12,VALID,0,
2016-06-27, 10:12:04,VALID,917.909,VALID,0,VALID,69.2587,VALID,620.902,VALID,24.8688,VALID,28,VALID,0,
2016-06-27, 10:13:04,VALID,917.94,VALID,0,VALID,67.2385,VALID,748.435,VALID,24.9078,VALID,290,VALID,0.112109,
2016-06-27, 10:14:04,VALID,917.95,VALID,0,VALID,70.1964,VALID,771.642,VALID,24.8083,VALID,341,VALID,0.0945313,
2016-06-27, 10:15:04,VALID,917.951,VALID,0,VALID,71.7821,VALID,471.452,VALID,24.9645,VALID,14,VALID,0,
2016-06-27, 10:16:04,VALID,917.971,VALID,0,VALID,68.161,VALID,407.632,VALID,25.0836,VALID,337,VALID,0.0289063,
2016-06-27, 10:17:04,VALID,917.961,VALID,0,VALID,68.0847,VALID,383.672,VALID,24.984,VALID,12,VALID,0,
2016-06-27, 10:18:04,VALID,917.867,VALID,0,VALID,68.1915,VALID,387.433,VALID,24.984,VALID,21,VALID,0.000390625,
2016-06-27, 10:19:04,VALID,917.874,VALID,0,VALID,68.2829,VALID,404.946,VALID,24.945,VALID,25,VALID,0,
2016-06-27, 10:20:04,VALID,917.846,VALID,0,VALID,68.3668,VALID,438.897,VALID,24.9255,VALID,30,VALID,0.703516,
2016-06-27, 10:21:04,VALID,917.845,VALID,0,VALID,67.3071,VALID,440.294,VALID,24.9645,VALID,30,VALID,0.745703,
2016-06-27, 10:22:04,VALID,917.838,VALID,0,VALID,69.0148,VALID,439.434,VALID,25.0817,VALID,352,VALID,0,
2016-06-27, 10:23:04,VALID,917.838,VALID,0,VALID,68.6336,VALID,490.791,VALID,25.1207,VALID,328,VALID,0,
2016-06-27, 10:24:04,VALID,917.814,VALID,0,VALID,67.33,VALID,525.387,VALID,25.1598,VALID,6,VALID,0,
2016-06-27, 10:25:04,VALID,917.817,VALID,0,VALID,69.1368,VALID,496.378,VALID,25.2183,VALID,26,VALID,0,
2016-06-27, 10:26:04,VALID,917.815,VALID,0,VALID,66.987,VALID,538.602,VALID,25.3355,VALID,12,VALID,0.0894531,
2016-06-27, 10:27:04,VALID,917.785,VALID,0,VALID,66.743,VALID,514.643,VALID,25.1988,VALID,306,VALID,0,
2016-06-27, 10:28:04,VALID,917.81,VALID,0,VALID,69.4646,VALID,513.569,VALID,25.0231,VALID,38,VALID,1.21797,
2016-06-27, 10:29:04,VALID,917.836,VALID,0,VALID,69.0758,VALID,512.279,VALID,25.1207,VALID,19,VALID,0.1125,
2016-06-27, 10:30:04,VALID,917.841,VALID,0,VALID,67.4749,VALID,489.609,VALID,25.2183,INVALID,360,VALID,0,
2016-06-27, 10:31:04,VALID,917.853,VALID,0,VALID,68.3515,VALID,508.626,VALID,25.1402,VALID,290,VALID,0.00117188,
2016-06-27, 10:32:04,VALID,917.797,VALID,0,VALID,67.1775,VALID,477.361,VALID,25.1579,VALID,24,VALID,1.24375,
2016-06-27, 10:33:04,VALID,917.826,VALID,0,VALID,66.2475,VALID,457.162,VALID,25.2379,VALID,326,VALID,0.462891,
2016-06-27, 10:34:04,VALID,917.801,VALID,0,VALID,66.1712,VALID,442.12,VALID,25.1207,VALID,348,VALID,0.00195313,
2016-06-27, 10:35:04,VALID,917.849,VALID,0,VALID,69.7543,VALID,410.855,VALID,25.0231,VALID,13,VALID,0.335156,
2016-06-27, 10:36:04,VALID,917.846,VALID,0,VALID,69.3121,VALID,362.614,VALID,24.945,VALID,26,VALID,0.6,
2016-06-27, 10:37:04,VALID,917.825,VALID,0,VALID,70.265,VALID,336.721,VALID,24.9255,VALID,18,VALID,0.471484,
2016-06-27, 10:38:04,VALID,917.804,VALID,0,VALID,70.0135,VALID,360.358,VALID,24.7479,VALID,326,VALID,0.649609,
2016-06-27, 10:39:04,VALID,917.782,VALID,0,VALID,69.7695,VALID,366.267,VALID,24.6912,VALID,5,VALID,0.777344,
2016-06-27, 10:40:04,VALID,917.741,VALID,0,VALID,70.3413,VALID,372.821,VALID,24.6521,VALID,16,VALID,0.0289063,
2016-06-27, 10:41:04,VALID,917.763,VALID,0,VALID,71.1951,VALID,398.929,VALID,24.6912,VALID,15,VALID,0,
2016-06-27, 10:42:04,VALID,917.747,VALID,0,VALID,70.2498,VALID,444.914,VALID,24.8669,INVALID,360,VALID,0,
2016-06-27, 10:43:04,VALID,917.733,VALID,0,VALID,68.2143,VALID,490.684,VALID,24.945,VALID,350,VALID,0,
2016-06-27, 10:44:04,VALID,917.729,VALID,0,VALID,69.1368,VALID,510.131,VALID,25.1012,VALID,360,VALID,0,
2016-06-27, 10:45:04,VALID,917.665,VALID,0,VALID,66.7811,VALID,509.056,VALID,25.1988,VALID,238,VALID,0,
2016-06-27, 10:46:04,VALID,917.682,VALID,0,VALID,68.8166,VALID,525.28,VALID,25.316,VALID,20,VALID,0,
2016-06-27, 10:47:04,VALID,917.68,VALID,0,VALID,68.7098,VALID,523.883,VALID,25.4703,VALID,23,VALID,0,
2016-06-27, 10:48:04,VALID,917.706,VALID,0,VALID,66.4609,VALID,504.544,VALID,25.5874,VALID,20,VALID,0,
2016-06-27, 10:49:04,VALID,917.655,VALID,0,VALID,66.1026,VALID,447.385,VALID,25.7066,VALID,20,VALID,0,
2016-06-27, 10:50:04,VALID,917.664,VALID,0,VALID,66.7125,VALID,440.186,VALID,25.8042,VALID,45,VALID,0,
2016-06-27, 10:51:04,VALID,917.673,VALID,0,VALID,67.0556,VALID,463.071,VALID,25.8823,VALID,38,VALID,0,
2016-06-27, 10:52:04,VALID,917.664,VALID,0,VALID,65.6376,VALID,527.214,VALID,25.9019,VALID,338,VALID,0,
2016-06-27, 10:53:04,VALID,917.667,VALID,0,VALID,65.508,VALID,578.141,VALID,25.9019,VALID,18,VALID,0.920313,
2016-06-27, 10:54:04,VALID,917.684,VALID,0,VALID,65.7825,VALID,535.057,VALID,25.8433,VALID,32,VALID,0.133203,
2016-06-27, 10:55:04,VALID,917.679,VALID,0,VALID,66.3085,VALID,522.057,VALID,25.8804,VALID,15,VALID,0.00351562,
2016-06-27, 10:56:04,VALID,917.706,VALID,0,VALID,65.9426,VALID,549.776,VALID,25.9214,VALID,42,VALID,0,
2016-06-27, 10:57:04,VALID,917.704,VALID,0,VALID,64.6694,VALID,564.711,VALID,25.9995,VALID,40,VALID,0,
2016-06-27, 10:58:04,VALID,917.704,VALID,0,VALID,64.7609,VALID,567.074,VALID,26.0776,VALID,20,VALID,0,
2016-06-27, 10:59:04,VALID,917.745,VALID,0,VALID,65.0887,VALID,534.842,VALID,26.1167,VALID,13,VALID,0,
2016-06-27, 11:00:04,VALID,917.752,VALID,0,VALID,65.3479,VALID,524.528,VALID,26.1362,VALID,24,VALID,0.557031,
2016-06-27, 11:01:04,VALID,917.796,VALID,0,VALID,64.2425,VALID,485.204,VALID,26.1362,VALID,344,VALID,0,
2016-06-27, 11:02:04,VALID,917.825,VALID,0,VALID,64.6771,VALID,475.749,VALID,26.1187,VALID,32,VALID,0,
2016-06-27, 11:03:04,VALID,917.803,VALID,0,VALID,63.9528,VALID,470.592,VALID,26.1558,VALID,32,VALID,0,
2016-06-27, 11:04:04,VALID,917.774,VALID,0,VALID,63.9376,VALID,452.972,VALID,26.1948,VALID,65,VALID,0,
2016-06-27, 11:05:04,VALID,917.786,VALID,0,VALID,66.156,VALID,415.797,VALID,26.1753,VALID,118,VALID,0,
2016-06-27, 11:06:04,VALID,917.795,VALID,0,VALID,66.4914,VALID,436.856,VALID,26.2925,VALID,78,VALID,0,
2016-06-27, 11:07:04,VALID,917.749,VALID,0,VALID,64.7457,VALID,479.832,VALID,26.271,VALID,34,VALID,0.357422,
2016-06-27, 11:08:04,VALID,917.73,VALID,0,VALID,66.8726,VALID,511.205,VALID,26.1538,VALID,10,VALID,0.494531,
2016-06-27, 11:09:04,VALID,917.78,VALID,0,VALID,67.0861,VALID,510.023,VALID,26.0972,VALID,24,VALID,0,
2016-06-27, 11:10:04,VALID,917.701,VALID,0,VALID,65.0277,VALID,482.196,VALID,26.0386,VALID,107,VALID,0,
2016-06-27, 11:11:04,VALID,917.776,VALID,0,VALID,66.2932,VALID,485.204,VALID,25.7827,VALID,78,VALID,0.00742187,
2016-06-27, 11:12:04,VALID,917.785,VALID,0,VALID,67.6426,VALID,490.791,VALID,25.7241,VALID,43,VALID,0,
2016-06-27, 11:13:04,VALID,917.796,VALID,0,VALID,67.1242,VALID,561.81,VALID,25.646,VALID,43,VALID,0,
2016-06-27, 11:14:04,VALID,917.795,VALID,0,VALID,68.3363,VALID,667.962,VALID,25.607,VALID,55,VALID,0,
2016-06-27, 11:15:04,VALID,917.823,VALID,0,VALID,69.8686,VALID,665.061,VALID,25.7437,VALID,54,VALID,0,
2016-06-27, 11:16:04,VALID,917.797,VALID,0,VALID,67.8865,VALID,558.587,VALID,25.9995,VALID,57,VALID,0,
2016-06-27, 11:17:04,VALID,917.759,VALID,0,VALID,68.4354,VALID,516.577,VALID,25.8042,VALID,331,VALID,0.471094,
2016-06-27, 11:18:04,VALID,917.703,VALID,0,VALID,67.6807,VALID,497.453,VALID,25.646,VALID,216,VALID,0,
2016-06-27, 11:19:04,VALID,917.711,VALID,0,VALID,68.2906,VALID,502.18,VALID,25.6675,VALID,12,VALID,0,
2016-06-27, 11:20:04,VALID,917.656,VALID,0,VALID,68.3287,VALID,486.816,VALID,25.648,VALID,18,VALID,0.978906,
2016-06-27, 11:21:04,VALID,917.657,VALID,0,VALID,67.8027,VALID,488.642,VALID,25.5894,VALID,32,VALID,0,
2016-06-27, 11:22:04,VALID,917.696,VALID,0,VALID,69.1444,VALID,430.194,VALID,25.5113,VALID,18,VALID,0,
2016-06-27, 11:23:04,VALID,917.658,VALID,0,VALID,70.1888,VALID,496.915,VALID,25.5698,VALID,28,VALID,0,
2016-06-27, 11:24:04,VALID,917.704,VALID,0,VALID,67.5358,VALID,467.262,VALID,25.7651,VALID,349,VALID,0,
2016-06-27, 11:25:04,VALID,917.644,VALID,0,VALID,67.7417,VALID,625.415,VALID,25.7651,VALID,29,VALID,0,
2016-06-27, 11:26:04,VALID,917.646,VALID,0,VALID,67.5968,VALID,561.38,VALID,25.607,VALID,232,VALID,2.83281,
2016-06-27, 11:27:04,VALID,917.57,VALID,0,VALID,68.5269,VALID,625.952,VALID,25.2965,VALID,232,VALID,0.06875,
2016-06-27, 11:28:04,VALID,917.548,VALID,0,VALID,72.8036,VALID,583.405,VALID,25.2183,VALID,294,VALID,0,
2016-06-27, 11:29:04,VALID,917.574,VALID,0,VALID,72.331,VALID,535.487,VALID,25.3941,VALID,11,VALID,0,
2016-06-27, 11:30:04,VALID,917.544,VALID,0,VALID,68.7022,VALID,462.642,VALID,25.1402,VALID,252,VALID,2.41094,
2016-06-27, 11:31:04,VALID,917.5,VALID,0,VALID,70.9054,VALID,499.924,VALID,24.865,VALID,239,VALID,0,
2016-06-27, 11:32:04,VALID,917.512,VALID,0,VALID,73.0781,VALID,579.43,VALID,24.9645,VALID,297,VALID,0,
2016-06-27, 11:33:04,VALID,917.435,VALID,0,VALID,70.6233,VALID,604.034,VALID,25.1012,VALID,326,VALID,0,
2016-06-27, 11:34:04,VALID,917.438,VALID,0,VALID,69.274,VALID,574.273,VALID,25.1793,VALID,284,VALID,0.00273437,
2016-06-27, 11:35:04,VALID,917.423,VALID,0,VALID,70.8444,VALID,556.975,VALID,25.2379,VALID,337,VALID,0.689062,
2016-06-27, 11:36:04,VALID,917.463,VALID,0,VALID,70.8368,VALID,587.381,VALID,25.316,VALID,254,VALID,0.584375,
2016-06-27, 11:37:04,VALID,917.385,VALID,0,VALID,69.9448,VALID,667.532,VALID,25.3531,VALID,28,VALID,1.91875,
2016-06-27, 11:38:04,VALID,917.379,VALID,0,VALID,69.7695,VALID,727.591,VALID,25.4117,VALID,9,VALID,0.00585938,
2016-06-27, 11:39:04,VALID,917.393,VALID,0,VALID,71.6525,VALID,805.486,VALID,25.607,VALID,111,VALID,0.00820312,
2016-06-27, 11:40:04,VALID,917.346,VALID,0,VALID,67.6731,VALID,825.793,VALID,25.9019,VALID,357,VALID,1.24961,
2016-06-27, 11:41:04,VALID,917.284,VALID,0,VALID,67.9399,VALID,766.055,VALID,25.9019,VALID,275,VALID,0,
2016-06-27, 11:42:04,VALID,917.264,VALID,0,VALID,68.5803,VALID,720.715,VALID,26.0366,VALID,250,VALID,0,
2016-06-27, 11:43:04,VALID,917.215,VALID,0,VALID,70.9969,VALID,675.805,VALID,26.1538,VALID,131,VALID,0,
2016-06-27, 11:44:04,VALID,917.261,VALID,0,VALID,66.7125,VALID,631.432,VALID,26.312,VALID,137,VALID,0,
2016-06-27, 11:45:04,VALID,917.202,VALID,0,VALID,65.8282,VALID,640.349,VALID,26.4683,VALID,130,VALID,0,
2016-06-27, 11:46:04,VALID,917.238,VALID,0,VALID,67.4139,VALID,678.706,VALID,26.3316,VALID,102,VALID,0,
2016-06-27, 11:47:04,VALID,917.26,VALID,0,VALID,67.856,VALID,723.509,VALID,26.1147,VALID,262,VALID,0.13125,
2016-06-27, 11:48:04,VALID,917.238,VALID,0,VALID,70.1735,VALID,706.855,VALID,26.1342,VALID,28,VALID,0,
2016-06-27, 11:49:04,VALID,917.262,VALID,0,VALID,67.2157,VALID,771.213,VALID,26.3902,VALID,12,VALID,0.254297,
2016-06-27, 11:50:04,VALID,917.195,VALID,0,VALID,66.682,VALID,689.88,VALID,26.273,VALID,321,VALID,0,
2016-06-27, 11:51:04,VALID,917.227,VALID,0,VALID,66.8878,VALID,581.042,VALID,26.2514,VALID,45,VALID,0,
2016-06-27, 11:52:04,VALID,917.222,VALID,0,VALID,68.2296,VALID,591.678,VALID,26.3296,VALID,94,VALID,0,
2016-06-27, 11:53:04,VALID,917.198,VALID,0,VALID,68.0161,VALID,648.3,VALID,26.3882,VALID,49,VALID,0.24375,
2016-06-27, 11:54:04,VALID,917.193,VALID,0,VALID,69.6856,VALID,742.956,VALID,26.5249,VALID,16,VALID,0.0289063,
2016-06-27, 11:55:04,VALID,917.215,VALID,0,VALID,65.0049,VALID,738.121,VALID,26.7007,VALID,32,VALID,0.178125,
2016-06-27, 11:56:04,VALID,917.274,VALID,0,VALID,67.5511,VALID,681.392,VALID,26.6812,VALID,315,VALID,0,
2016-06-27, 11:57:04,VALID,917.232,VALID,0,VALID,66.1941,VALID,622.836,VALID,26.7398,VALID,296,VALID,0.003125,
2016-06-27, 11:58:04,VALID,917.234,VALID,0,VALID,68.5193,VALID,504.759,VALID,26.6616,VALID,82,VALID,0.00273437,
2016-06-27, 11:59:04,VALID,917.249,VALID,0,VALID,65.6757,VALID,479.08,VALID,26.603,VALID,209,VALID,0,
2016-06-27, 12:00:04,VALID,917.214,VALID,0,VALID,65.8739,VALID,495.948,VALID,26.5249,VALID,358,VALID,1.17773,
2016-06-27, 12:01:04,VALID,917.287,VALID,0,VALID,67.33,VALID,527.966,VALID,26.2514,VALID,360,VALID,0.209375,
2016-06-27, 12:02:04,VALID,917.22,VALID,0,VALID,68.4354,VALID,534.52,VALID,26.0952,VALID,21,VALID,0,